Simultaneous Nadir Overpasses (SNOs) Predictions

Prediction of SNOs between FY3D and NOAA-19 Satellite Orbit:

Table of predicted SNOs for the next 14.0 days since TLE Epoch: 2/12/2022
Index Date (FY3D) Time (FY3D) Lat,Lon (FY3D) SZA (FY3D ) Date (NOAA-19) Time (NOAA-19) Lat,Lon (NOAA-19) SZA (NOAA-19 ) Distance(km) Time Diff (sec)
1 02/16/2022 09:16:40 77.48, 23.22 90.51 02/16/2022 09:15:34 77.48, 19.93 90.81 79.32 66
2 02/16/2022 10:07:33 -77.81,-171.05 89.08 02/16/2022 10:06:21 -77.82,-171.02 89.05 1.33 72
3 02/16/2022 10:58:20 77.84, -3.87 90.95 02/16/2022 10:57:26 77.80, -3.89 90.94 4.04 54
4 02/16/2022 11:49:05 -77.83, 163.46 89.07 02/16/2022 11:48:21 -77.82, 163.51 89.07 1.56 44
5 02/16/2022 12:39:51 77.82, -29.16 90.90 02/16/2022 12:39:25 77.84, -29.16 90.93 2.80 26
6 02/16/2022 13:30:37 -77.85, 137.97 89.07 02/16/2022 13:30:21 -77.83, 138.03 89.09 3.36 16
7 02/16/2022 14:21:22 77.84, -54.65 90.90 02/16/2022 14:21:24 77.85, -54.64 90.91 0.79 2
8 02/16/2022 15:12:07 -77.84, 112.68 89.12 02/16/2022 15:12:20 -77.83, 112.55 89.12 3.06 13
9 02/16/2022 16:02:54 77.86, -80.14 90.91 02/16/2022 16:03:24 77.85, -80.12 90.89 1.36 30
10 02/16/2022 16:53:39 -77.86, 87.19 89.11 02/16/2022 16:54:19 -77.87, 87.29 89.12 2.88 40
11 02/16/2022 17:44:26 77.88,-105.63 90.91 02/16/2022 17:45:24 77.85,-105.60 90.86 3.39 58
12 02/16/2022 18:35:11 -77.88, 61.70 89.11 02/16/2022 18:36:19 -77.88, 61.81 89.14 2.60 68



Historial Predications of SNOs between FY3D and NOAA-19
